Regional Weather Roundup
Issued by NWS

Home | Current Version | Previous Version | Text Only | Print | Product List | Glossary On
Versions: 1 2 3 4 5 6 7 8 9 10 11 12 13 14 15 16 17 18 19 20 21 22 23 24 25 26 27 28 29 30 31 32 33 34 35 36 37 38 39 40 41 42 43 44 45 46 47 48 49
000
ASUS43 KDMX 281007
RWRIA

WEATHER ROUNDUP FOR IOWA
NATIONAL WEATHER SERVICE DES MOINES IA
500 AM CDT THU MAY 28 2015

NOTE: "FAIR" INDICATES FEW OR NO CLOUDS BELOW 12,000 FEET WITH NO
SIGNIFICANT WEATHER AND/OR OBSTRUCTIONS TO VISIBILITY.

* - THESE STATIONS ARE NOT NWS STATIONS...THUS NOT UNDER NWS
QUALITY CONTROL.  THEY ALSO DO NOT REPORT WEATHER SUCH
AS PRECIPITATION OR FOG.

IAZ001>003-012>014-020>022-031>034-043>046-281100-
   NORTHWEST IOWA

CITY           SKY/WX    TMP DP  RH WIND       PRES   REMARKS
CARROLL *      MOCLDY    59  55  88 SE3       30.07F
CHEROKEE *     CLEAR     54  54 100 CALM      30.06S FOG
DENISON *      CLEAR     59  55  88 SE6       30.04F
LE MARS *      CLEAR     59  54  82 S3        30.05S
ORANGE CITY *  CLEAR     59  50  72 S6        30.05S
SHELDON *      PTCLDY    57  52  82 S5        30.04S
SIOUX CITY     MOCLDY    59  52  77 E7        30.03F
SPENCER        CLEAR     56  51  84 SE5       30.06S
STORM LAKE *   CLEAR     59  52  77 S7        30.08S
$$

IAZ055>058-069>071-079>083-090>094-281100-
   SOUTHWEST IOWA

CITY           SKY/WX    TMP DP  RH WIND       PRES   REMARKS
ATLANTIC *     CLEAR     57  55  94 CALM      30.07S
AUDUBON *      CLEAR     54  52  94 CALM      30.08F
CLARINDA *     CLEAR     61  55  82 CALM      30.08S
COUNCIL BLFS * CLEAR     61  57  88 SE7       30.06S
CRESTON *      CLEAR     61  57  88 SE5       30.09S
HARLAN  *      CLEAR     55  55 100 CALM      30.10S
LAMONI         MOCLDY    65  55  70 SE6       30.10F
RED OAK *      CLEAR     61  55  82 SW3       30.07R
SHENANDOAH *   CLEAR     63  57  82 CALM      30.06S
$$

IAZ047>049-059>061-072>074-084-281100-
   CENTRAL IOWA

CITY           SKY/WX    TMP DP  RH WIND       PRES   REMARKS
AMES           CLEAR     58  55  90 CALM      30.10S
ANKENY *       CLEAR     59  57  94 CALM      30.10R
CHARITON *       N/A     61  55  82 SE6       30.10F
DES MOINES     PTCLDY    63  55  75 S6        30.09S
GRINNELL*      CLEAR     61  55  82 S6        30.12S
KNOXVILLE *    CLEAR     61  55  82 S6        30.09S
MARSHALLTOWN   CLEAR     58  55  90 E5        30.10F
PELLA *        CLEAR     59  57  94 SE3       30.11F
PERRY *          N/A     59  57  94 SE5       30.09S
$$

IAZ004>006-015-016-023>025-035-036-281100-
   NORTH CENTRAL IOWA

CITY           SKY/WX    TMP DP  RH WIND       PRES   REMARKS
ALGONA *       CLEAR     59  55  88 S9        30.09R
CLARION *      CLEAR     61 N/A N/A S12       30.10R
ESTHERVILLE    CLEAR     56  52  86 S7        30.06S
FORT DODGE *   CLEAR     61  54  77 CALM      30.10R
MASON CITY     CLEAR     57  54  89 S8        30.11S
IOWA FALLS *     N/A     59  55  88 SE3       30.12S
$$

IAZ007>011-017>019-026>030-037>042-050>054-066-281100-
   NORTHEAST IOWA

CITY           SKY/WX    TMP DP  RH WIND       PRES   REMARKS
CEDAR RAPIDS   CLEAR     59  56  89 SE3       30.13S
CHARLES CITY * CLEAR     59  59 100 S8        30.12S
CLINTON *        N/A     61  54  77 S5        30.18S
DECORAH *      MOCLDY    63  55  77 S5        30.12R
DUBUQUE        CLEAR     57  54  89 S7        30.15R
MONTICELLO *   CLEAR     59  57  94 CALM      30.14S
OELWEIN *      CLEAR     59  57  94 SE5       30.14S
WATERLOO       CLEAR     61  55  81 SE3       30.11S
$$

IAZ064-065-067-068-078-281100-
   EAST CENTRAL IOWA

CITY           SKY/WX    TMP DP  RH WIND       PRES   REMARKS
DAVENPORT      CLEAR     60  54  80 SE3       30.16S
IOWA CITY      CLEAR     58  56  93 CALM      30.15S
MT. PLEASANT * CLEAR     59  55  88 CALM      30.13F
MUSCATINE *      N/A     59  57  94 N3        30.15R
QUAD CITIES    CLEAR     60  55  83 CALM      30.15S
$$

IAZ062-063-075>077-085>089-095>099-281100-
   SOUTHEAST IOWA

CITY           SKY/WX    TMP DP  RH WIND       PRES   REMARKS
BURLINGTON     CLEAR     58  57  97 CALM      30.13F
FAIRFIELD *    CLEAR     59  54  82 SE6       30.12F
FORT MADISON *   N/A     57  57 100 CALM      30.14S
KEOKUK *       CLEAR     57  57 100 E5        30.12S
OSKALOOSA *      N/A     59  55  88 SE7       30.11F
CENTERVILLE *  CLEAR     57  57 100 SE5       30.13R
OTTUMWA        CLEAR     61  55  81 SE5       30.11F
WASHINGTON *   CLEAR     59  55  88 CALM      30.15S
$$

ABBREVIATIONS USED IN REMARKS
   TC - TEMPERATURES IN CELSIUS
  WCI - WIND CHILL INDEX
   HX - HEAT INDEX
  VSB - VISIBILITY
$$



USA.gov is the U.S. government's official web portal to all federal, state and local government web resources and services.